Simultaneous Nadir Overpasses (SNOs) Predictions

Prediction of SNOs between GOES-17 and METOP-A Satellite Orbit:

Table of predicted SNOs for the next 14.0 days since TLE Epoch: 7/31/2020
Index Date Time (GOES-17) GOES-17 Lat,Lon METOP-A Lat,Lon Distance(km) Time Diff (sec)
1 08/02/2020 05:56:45 0.03,-137.19 -0.48,-139.62 275.45 80
2 08/03/2020 05:33:24 0.03,-137.19 0.59,-134.63 292.00 80
3 08/04/2020 17:52:16 -0.02,-137.20 0.40,-139.23 230.22 80
4 08/05/2020 17:34:15 -0.02,-137.20 -0.67,-134.24 337.23 80
5 08/07/2020 05:53:16 0.02,-137.19 -0.34,-138.87 191.19 80
6 08/08/2020 05:29:55 0.02,-137.19 0.74,-133.88 375.98 80
7 08/09/2020 17:48:46 -0.02,-137.19 0.25,-138.48 146.98 80
8 08/10/2020 17:30:46 -0.02,-137.18 -0.82,-133.49 419.92 80
9 08/12/2020 05:49:46 0.02,-137.16 -0.18,-138.12 109.48 80
10 08/13/2020 05:26:26 0.02,-137.15 0.89,-133.14 456.87 80
11 08/14/2020 17:45:17 -0.01,-137.14 0.10,-137.73 67.55 80
